sat.trackr.live / text

‹ back to catalog

STARLINK-37666

NORAD 69046 · 2026-101X

PAYLOAD ACTIVE UNKNOWN

§ Identity

Operator
Country
US
Launch date
2026-05-06
Launch site
AFWTR
Launch vehicle
Mass (kg)
RCS (m²)

Purposes: comms

External: N2YO · Heavens-Above · Gunter

§ Orbital elements

Epoch: 2026-05-25T03:10:14.215008Z

Period
91.42 min
Inclination
97.2844°
Eccentricity
0.0001572
Mean motion
15.75230605 rev/d
Perigee alt
342.9 km
Apogee alt
345.0 km
Semi-major
6,722.1 km
B*
7.9651e-4
RAAN
359.9204°
Arg perigee
74.1655°
Mean anomaly
285.9784°
Rev number
301

§ Raw data

STARLINK-376661 69046U 26101X   26145.13210897  .00120579  00000+0  79651-3 0  99982 69046  97.2844 359.9204 0001572  74.1655 285.9784 15.75230605  3017

JSON: /api/v1/satellites/69046 · /tle

For live sub-satellite position, see the globe view (requires WebGL).

§ Visibility from observer

Set your observer location to see the next 7 days of passes ≥ 10°. The values pass through the URL so the page stays shareable.

No JS? Fill the form by hand. The geolocation button needs JavaScript.